Location: ?
(35.4554°N, 139.3092°E)
Time: 22:04:22
(UTC+00:00)

SL-08 R/B - Pass Details

Date: 21 April 2021
Orbit: 673 x 740 km, 98.5° (Epoch: 10 May)

Event Time Altitude Azimuth Distance (km) Brightness Sun altitude
Exits shadow 18:38:02 19° 199° (SSW) 1,715 4.9 -16.6°
Maximum altitude 18:41:13 41° 261° (W) 1,046 3.7 -16.1°
Drops below altitude 10° 18:45:48 10° 331° (NNW) 2,209 5.9 -15.2°
Sets 18:48:11 0° 339° (NNW) 3,122 6.7 -14.8°
